Weather History for KLQK - March, 2014

Change the Weather History Date:

Sunday, March 30, 2014

  Actual Average Record
Temperature  
Mean Temperature 54 °F -  
Max Temperature 67 °F 69 °F 72 °F (2015)
Min Temperature 39 °F 47 °F 39 °F (2014)
Degree Days  
Heating Degree Days 12    
Growing Degree Days 4 (Base 50)    
Moisture  
Dew Point 29 °F    
Average Humidity 44    
Maximum Humidity 77    
Minimum Humidity 19    
Precipitation  
Precipitation 0.00 in - - ()
Sea Level Pressure  
Sea Level Pressure 29.94 in    
Wind  
Wind Speed - (North)    
Max Wind Speed -    
Max Gust Speed -    
Visibility 10 miles    
Events      
Averages and records for this station are not official NWS values.
T = Trace of Precipitation, MM = Missing Value Source: NWS Daily Summary

Daily Weather History Graph

Daily Weather History Graph

Search for Another Location

Airport or City:

Trip Planner

Search our weather history database for the weather conditions in past years. The results will help you decide how hot, cold, wet, or windy it might be!

Date:

Astronomy

Mar. 30, 2014 Rise Set
Actual Time 7:20 AM EDT 7:50 PM EDT
Civil Twilight 6:55 AM EDT 8:15 PM EDT
Nautical Twilight 6:25 AM EDT 8:45 PM EDT
Astronomical Twilight 5:55 AM EDT 9:16 PM EDT
Moon 7:05 AM EDT 8:00 PM EDT
Length of Visible Light 13h 20m
Length of Day
12h 29m
Waning Crescent, 0% of the Moon is Illuminated
Mar 30
Waning Crescent
Mar 30
New
Apr 7
First Quarter
Apr 15
Full
Apr 22
Last Quarter

Hourly Weather History & Observations

Time (EDT) Temp. Dew Point Humidity Pressure Visibility Wind Dir Wind Speed Gust Speed Precip Events Conditions
12:15 AM 48.4 °F 34.3 °F 58% 29.80 in 10.0 mi North - - N/A   Scattered Clouds
12:35 AM 48.6 °F 33.1 °F 55% 29.80 in 10.0 mi North - - N/A   Scattered Clouds
12:55 AM 48.2 °F 32.7 °F 55% 29.82 in 10.0 mi North - - N/A   Scattered Clouds
1:15 AM 48.0 °F 32.2 °F 54% 29.82 in 10.0 mi North - - N/A   Scattered Clouds
1:35 AM 47.5 °F 32.0 °F 55% 29.82 in 10.0 mi North - - N/A   Clear
1:55 AM 46.9 °F 31.8 °F 56% 29.82 in 10.0 mi North - - N/A   Clear
2:15 AM 46.8 °F 32.0 °F 57% 29.82 in 10.0 mi North - - N/A   Clear
2:35 AM 46.8 °F 31.8 °F 56% 29.82 in 10.0 mi North - - N/A   Scattered Clouds
2:55 AM 46.9 °F 31.6 °F 55% 29.81 in 10.0 mi North - - N/A   Clear
3:15 AM 47.1 °F 31.3 °F 54% 29.82 in 10.0 mi North - - N/A   Clear
3:35 AM 46.8 °F 31.1 °F 55% 29.82 in 10.0 mi North - - N/A   Clear
3:55 AM 46.8 °F 30.9 °F 54% 29.83 in 10.0 mi North - - N/A   Clear
4:15 AM 46.6 °F 30.9 °F 54% 29.83 in 10.0 mi North - - N/A   Clear
4:35 AM 46.4 °F 30.9 °F 55% 29.83 in 10.0 mi North - - N/A   Clear
4:55 AM 46.2 °F 30.9 °F 55% 29.83 in 10.0 mi North - - N/A   Clear
5:15 AM 45.9 °F 30.9 °F 56% 29.84 in 10.0 mi North - - N/A   Clear
5:35 AM 45.3 °F 30.7 °F 57% 29.84 in 10.0 mi North - - N/A   Clear
5:55 AM 45.0 °F 30.9 °F 58% 29.85 in 10.0 mi North - - N/A   Clear
6:15 AM 44.6 °F 31.1 °F 59% 29.86 in 10.0 mi North - - N/A   Clear
6:35 AM 44.1 °F 31.1 °F 60% 29.88 in 10.0 mi North - - N/A   Clear
6:55 AM 43.5 °F 31.3 °F 62% 29.88 in 10.0 mi North - - N/A   Clear
7:15 AM 43.5 °F 31.3 °F 62% 29.88 in 10.0 mi North - - N/A   Clear
7:35 AM 43.5 °F 31.3 °F 62% 29.90 in 10.0 mi North - - N/A   Clear
7:55 AM 43.7 °F 31.3 °F 62% 29.91 in 10.0 mi North - - N/A   Clear
8:15 AM 43.5 °F 31.5 °F 63% 29.93 in 10.0 mi North - - N/A   Clear
8:35 AM 43.3 °F 31.6 °F 63% 29.94 in 10.0 mi North - - N/A   Clear
8:55 AM 45.7 °F 32.0 °F 59% 29.95 in 10.0 mi North - - N/A   Clear
9:15 AM 48.4 °F 31.5 °F 52% 29.96 in 10.0 mi North - - N/A   Clear
9:35 AM 49.5 °F 31.3 °F 50% 29.96 in 10.0 mi North - - N/A   Clear
9:55 AM 50.9 °F 31.3 °F 47% 29.96 in 10.0 mi North - - N/A   Clear
10:15 AM 51.4 °F 29.8 °F 44% 29.96 in 10.0 mi North - - N/A   Clear
10:35 AM 52.3 °F 30.4 °F 43% 29.97 in 10.0 mi North - - N/A   Clear
10:55 AM 53.4 °F 30.4 °F 41% 29.98 in 10.0 mi North - - N/A   Clear
11:15 AM 54.7 °F 30.2 °F 39% 29.99 in 10.0 mi North - - N/A   Clear
11:35 AM 55.4 °F 30.0 °F 38% 29.99 in 10.0 mi North - - N/A   Clear
11:55 AM 56.3 °F 30.0 °F 37% 30.00 in 10.0 mi North - - N/A   Clear
12:15 PM 57.7 °F 29.3 °F 34% 29.99 in 10.0 mi North - - N/A   Clear
12:35 PM 59.4 °F 28.0 °F 30% 29.99 in 10.0 mi North - - N/A   Clear
12:55 PM 61.0 °F 27.5 °F 28% 29.99 in 10.0 mi North - - N/A   Clear
1:15 PM 61.5 °F 27.0 °F 27% 29.98 in 10.0 mi North - - N/A   Clear
1:35 PM 61.3 °F 26.1 °F 26% 29.97 in 10.0 mi North - - N/A   Clear
1:55 PM 63.0 °F 25.7 °F 24% 29.97 in 10.0 mi North - - N/A   Clear
2:15 PM 64.0 °F 24.6 °F 22% 29.97 in 10.0 mi North - - N/A   Clear
2:35 PM 65.1 °F 24.6 °F 22% 29.96 in 10.0 mi North - - N/A   Clear
2:55 PM 66.2 °F 24.3 °F 20% 29.96 in 10.0 mi North - - N/A   Clear
3:15 PM 66.4 °F 23.2 °F 19% 29.96 in 10.0 mi North - - N/A   Clear
3:35 PM 66.7 °F 23.4 °F 19% 29.95 in 10.0 mi North - - N/A   Clear
3:55 PM 67.3 °F 23.4 °F 19% 29.95 in 10.0 mi North - - N/A   Clear
4:15 PM 67.3 °F 23.0 °F 19% 29.96 in 10.0 mi North - - N/A   Clear
4:35 PM 67.1 °F 23.2 °F 19% 29.95 in 10.0 mi North - - N/A   Clear
4:55 PM 67.1 °F 23.4 °F 19% 29.96 in 10.0 mi North - - N/A   Clear
5:15 PM 67.1 °F 23.7 °F 19% 29.95 in 10.0 mi North - - N/A   Clear
5:35 PM 67.3 °F 23.9 °F 19% 29.95 in 10.0 mi North - - N/A   Clear
5:55 PM 67.1 °F 23.9 °F 20% 29.95 in 10.0 mi North - - N/A   Clear
6:15 PM 65.8 °F 23.5 °F 20% 29.96 in 10.0 mi North - - N/A   Clear
6:35 PM 65.1 °F 22.3 °F 20% 29.96 in 10.0 mi North - - N/A   Clear
6:55 PM 64.4 °F 22.1 °F 20% 29.97 in 10.0 mi North - - N/A   Clear
7:15 PM 63.1 °F 23.0 °F 22% 29.98 in 10.0 mi North - - N/A   Clear
7:35 PM 61.9 °F 22.8 °F 22% 29.98 in 10.0 mi North - - N/A   Clear
7:55 PM 60.1 °F 22.8 °F 24% 29.99 in 10.0 mi North - - N/A   Clear
8:15 PM 57.4 °F 24.8 °F 29% 30.00 in 10.0 mi North - - N/A   Clear
8:35 PM 53.4 °F 27.9 °F 37% 30.01 in 10.0 mi North - - N/A   Clear
8:55 PM 52.2 °F 28.0 °F 39% 30.02 in 10.0 mi North - - N/A   Clear
9:15 PM 50.5 °F 28.6 °F 43% 30.03 in 10.0 mi North - - N/A   Clear
9:35 PM 47.1 °F 31.1 °F 54% 30.04 in 10.0 mi North - - N/A   Clear
9:55 PM 46.4 °F 32.2 °F 58% 30.04 in 10.0 mi North - - N/A   Clear
10:15 PM 45.0 °F 32.4 °F 61% 30.04 in 10.0 mi North - - N/A   Clear
10:35 PM 43.7 °F 32.5 °F 65% 30.05 in 10.0 mi North - - N/A   Clear
10:55 PM 41.5 °F 32.5 °F 70% 30.06 in 10.0 mi North - - N/A   Clear
11:15 PM 40.6 °F 32.7 °F 73% 30.07 in 10.0 mi North - - N/A   Clear
11:35 PM 40.3 °F 32.5 °F 74% 30.07 in 10.0 mi North - - N/A   Clear
11:55 PM 39.7 °F 32.9 °F 77% 30.08 in 10.0 mi North - - N/A   Clear